Find Starlink 30363

NORAD ID: 57744 Int'l Des: 2023-131 Owner: SPXS Country: US Constellation: starlink operational
LEOCIRCULAR

实时位置

正在加载3D地球...

关于 Starlink 30363

正在加载描述...

即将过境

Passes for default location (London). Set your location on the main map for personalized predictions.

高度历史

Loading altitude history...

两行轨道根数

1 57744U 23131N 26132.35449016 .00001493 00000-0 63763-4 0 9999
2 57744 43.0009 158.3936 0001409 265.7152 94.3539 15.27581964149827
Epoch: May 12, 2026 • Age: 28 hours

当前状态

高度 483.9 km
速度 7.62 km/s
星下点 -7.42°S, 71.61°W
发射日期 Sep 1, 2023
运行时间 2.6 years
类型 internet

技术详情

分类 Payload
质量 730.00 kg
干质量 700.00 kg
总质量 730.00 kg
长度 0.30 m
直径 4.10 m
跨度 29.00 m
形状 Box + pan
制造商 SPXS
平台类型 Starlink V2M
阶段状态 In Orbit
所有者/国家 SPXS/US

Most Searched